When you browse on this site, cookies collect data to enhance your experience and personalize the content and advertising you see.
Visit our Privacy Policy to learn more. By continuing to use the site, you agree to this use of cookies and data.
  • In Hungary
  • List of Countries
  • For 7 days
  • Water Temperature
  • Satellite Maps
  • Weather Map
  • News
  • Weather Widgets
  • user-avatar
    Login

    Hourly Weather Chukaly

    Today, 22 January, Tuesday

    Time Temperature Precipitation Wind Pressure Humidity
    00:00 -17°C° 0.4 mm 7 mps 747 mmHg 92%
    01:00 -15°C° 0.4 mm 7 mps 747 mmHg 92%
    02:00 -15°C° 0.3 mm 7 mps 746 mmHg 92%
    03:00 -15°C° 0.3 mm 7 mps 746 mmHg 92%
    04:00 -15°C° 0.3 mm 6 mps 745 mmHg 91%
    05:00 -15°C° 0.2 mm 6 mps 745 mmHg 92%
    06:00 -15°C° 0.2 mm 6 mps 744 mmHg 92%
    07:00 -14°C° 0.2 mm 5 mps 744 mmHg 92%
    08:00 -14°C° 0.1 mm 5 mps 744 mmHg 92%
    09:00 -13°C° 0.1 mm 5 mps 744 mmHg 93%
    10:00 -12°C° 0.1 mm 4 mps 743 mmHg 93%
    11:00 -11°C° 0.2 mm 4 mps 743 mmHg 93%
    12:00 -9°C° 0.2 mm 3 mps 743 mmHg 93%
    13:00 -9°C° 0.2 mm 3 mps 743 mmHg 92%
    14:00 -9°C° 0.1 mm 3 mps 743 mmHg 93%
    15:00 -11°C° 0.1 mm 4 mps 744 mmHg 93%
    16:00 -12°C° 0.1 mm 4 mps 744 mmHg 94%
    17:00 -14°C° 0 mm 4 mps 744 mmHg 94%
    18:00 -15°C° 0 mm 4 mps 745 mmHg 95%
    19:00 -17°C° 0 mm 5 mps 745 mmHg 95%
    20:00 -18°C° 0 mm 4 mps 746 mmHg 96%
    21:00 -20°C° 0 mm 4 mps 747 mmHg 97%
    22:00 -23°C° 0 mm 3 mps 748 mmHg 98%
    23:00 -24°C° 0 mm 3 mps 748 mmHg 99%

    Tomorrow, 23 January, Wednesday

    Time Temperature Precipitation Wind Pressure Humidity
    00:00 -25°C° 0 mm 3 mps 749 mmHg 99%
    01:00 -26°C° 0 mm 3 mps 749 mmHg 99%
    02:00 -27°C° 0 mm 3 mps 750 mmHg 99%
    03:00 -27°C° 0 mm 3 mps 750 mmHg 99%
    04:00 -29°C° 0 mm 3 mps 751 mmHg 99%
    05:00 -29°C° 0 mm 3 mps 751 mmHg 98%
    06:00 -29°C° 0 mm 3 mps 752 mmHg 98%
    07:00 -29°C° 0 mm 3 mps 752 mmHg 98%
    08:00 -29°C° 0 mm 3 mps 753 mmHg 98%
    09:00 -29°C° 0 mm 3 mps 753 mmHg 98%
    10:00 -27°C° 0 mm 3 mps 754 mmHg 98%
    11:00 -27°C° 0 mm 3 mps 754 mmHg 97%
    12:00 -26°C° 0 mm 3 mps 754 mmHg 97%
    13:00 -25°C° 0 mm 3 mps 755 mmHg 96%
    14:00 -26°C° 0 mm 3 mps 755 mmHg 97%
    15:00 -27°C° 0 mm 3 mps 755 mmHg 97%
    16:00 -27°C° 0 mm 3 mps 756 mmHg 98%
    17:00 -29°C° 0 mm 3 mps 756 mmHg 98%
    18:00 -29°C° 0 mm 3 mps 757 mmHg 98%
    19:00 -30°C° 0 mm 3 mps 757 mmHg 98%
    20:00 -30°C° 0 mm 3 mps 758 mmHg 98%
    21:00 -30°C° 0 mm 3 mps 758 mmHg 98%
    22:00 -28°C° 0 mm 2 mps 758 mmHg 98%
    23:00 -28°C° 0 mm 2 mps 759 mmHg 98%

    Day after tomorrow, 24 January, Thursday

    Time Temperature Precipitation Wind Pressure Humidity
    00:00 -28°C° 0 mm 2 mps 759 mmHg 98%
    01:00 -29°C° 0 mm 3 mps 760 mmHg 98%
    02:00 -29°C° 0 mm 3 mps 760 mmHg 98%
    03:00 -29°C° 0 mm 3 mps 761 mmHg 98%
    04:00 -29°C° 0 mm 3 mps 761 mmHg 98%
    05:00 -29°C° 0 mm 3 mps 761 mmHg 98%
    06:00 -29°C° 0 mm 3 mps 762 mmHg 98%
    07:00 -29°C° 0 mm 3 mps 762 mmHg 98%
    08:00 -29°C° 0 mm 3 mps 762 mmHg 97%
    09:00 -29°C° 0 mm 3 mps 762 mmHg 97%
    10:00 -29°C° 0 mm 3 mps 762 mmHg 97%
    11:00 -27°C° 0 mm 3 mps 762 mmHg 96%
    12:00 -26°C° 0 mm 4 mps 762 mmHg 96%
    13:00 -25°C° 0 mm 4 mps 762 mmHg 95%
    14:00 -25°C° 0 mm 4 mps 762 mmHg 95%
    15:00 -25°C° 0 mm 4 mps 762 mmHg 95%
    16:00 -25°C° 0 mm 4 mps 761 mmHg 94%
    17:00 -25°C° 0 mm 4 mps 761 mmHg 93%
    18:00 -25°C° 0 mm 5 mps 761 mmHg 91%
    19:00 -24°C° 0 mm 5 mps 760 mmHg 90%
    20:00 -22°C° 0.1 mm 5 mps 759 mmHg 90%
    21:00 -22°C° 0.1 mm 6 mps 759 mmHg 90%
    22:00 -21°C° 0.1 mm 6 mps 758 mmHg 91%
    23:00 -20°C° 0.3 mm 7 mps 757 mmHg 91%

    25 January, Friday

    Time Temperature Precipitation Wind Pressure Humidity
    00:00 -19°C° 0.3 mm 7 mps 756 mmHg 91%
    01:00 -18°C° 0.3 mm 8 mps 755 mmHg 91%
    02:00 -18°C° 0.3 mm 8 mps 754 mmHg 91%
    03:00 -17°C° 0.3 mm 7 mps 754 mmHg 91%
    04:00 -17°C° 0.3 mm 7 mps 753 mmHg 91%
    05:00 -17°C° 0.3 mm 7 mps 752 mmHg 91%
    06:00 -17°C° 0.3 mm 7 mps 752 mmHg 92%
    07:00 -17°C° 0.3 mm 7 mps 752 mmHg 92%
    08:00 -16°C° 0.2 mm 6 mps 752 mmHg 92%
    09:00 -16°C° 0.2 mm 6 mps 752 mmHg 91%
    10:00 -16°C° 0.2 mm 6 mps 752 mmHg 91%
    11:00 -16°C° 0.1 mm 6 mps 753 mmHg 90%
    12:00 -16°C° 0.1 mm 6 mps 753 mmHg 90%
    13:00 -15°C° 0.1 mm 5 mps 753 mmHg 90%
    14:00 -15°C° 0 mm 5 mps 753 mmHg 91%
    15:00 -16°C° 0 mm 4 mps 754 mmHg 92%
    16:00 -16°C° 0 mm 4 mps 754 mmHg 93%
    17:00 -17°C° 0 mm 3 mps 754 mmHg 95%
    18:00 -18°C° 0 mm 3 mps 755 mmHg 96%
    19:00 -19°C° 0 mm 3 mps 755 mmHg 98%
    20:00 -22°C° 0 mm 3 mps 756 mmHg 99%
    21:00 -23°C° 0 mm 3 mps 756 mmHg 99%
    22:00 -24°C° 0 mm 2 mps 757 mmHg 99%
    23:00 -25°C° 0 mm 2 mps 757 mmHg 99%

    26 January, Saturday

    Time Temperature Precipitation Wind Pressure Humidity
    00:00 -23°C° 0 mm 1 mps 757 mmHg 99%
    01:00 -24°C° 0 mm 1 mps 757 mmHg 99%
    02:00 -24°C° 0 mm 1 mps 757 mmHg 99%
    03:00 -25°C° 0 mm 1 mps 758 mmHg 99%
    04:00 -25°C° 0 mm 0 mps 758 mmHg 99%
    05:00 -25°C° 0 mm 0 mps 758 mmHg 99%
    06:00 -26°C° 0 mm 0 mps 758 mmHg 99%
    07:00 -26°C° 0 mm 0 mps 758 mmHg 99%
    08:00 -25°C° 0 mm 0 mps 758 mmHg 98%
    09:00 -24°C° 0 mm 1 mps 758 mmHg 97%
    10:00 -23°C° 0 mm 1 mps 758 mmHg 96%
    11:00 -21°C° 0 mm 1 mps 758 mmHg 94%
    12:00 -20°C° 0 mm 1 mps 758 mmHg 93%
    13:00 -20°C° 0 mm 2 mps 757 mmHg 91%
    14:00 -20°C° 0 mm 2 mps 757 mmHg 91%
    15:00 -19°C° 0 mm 2 mps 757 mmHg 92%
    16:00 -21°C° 0 mm 3 mps 756 mmHg 92%
    17:00 -21°C° 0.1 mm 3 mps 756 mmHg 92%
    18:00 -19°C° 0.1 mm 3 mps 756 mmHg 93%
    19:00 -19°C° 0.1 mm 3 mps 756 mmHg 93%
    20:00 -19°C° 0.1 mm 3 mps 755 mmHg 93%
    21:00 -21°C° 0.1 mm 3 mps 755 mmHg 93%
    22:00 -21°C° 0.1 mm 3 mps 755 mmHg 93%
    23:00 -22°C° 0 mm 4 mps 754 mmHg 93%

    27 January, Sunday

    Time Temperature Precipitation Wind Pressure Humidity
    00:00 -22°C° 0 mm 4 mps 754 mmHg 93%
    01:00 -22°C° 0 mm 4 mps 754 mmHg 93%
    02:00 -22°C° 0.1 mm 4 mps 753 mmHg 93%
    03:00 -22°C° 0.1 mm 4 mps 753 mmHg 93%
    04:00 -20°C° 0.1 mm 4 mps 753 mmHg 94%
    05:00 -21°C° 0.2 mm 5 mps 752 mmHg 94%
    06:00 -21°C° 0.2 mm 5 mps 752 mmHg 94%
    07:00 -21°C° 0.2 mm 5 mps 751 mmHg 94%
    08:00 -21°C° 0.2 mm 5 mps 751 mmHg 94%
    09:00 -20°C° 0.2 mm 5 mps 751 mmHg 94%
    10:00 -20°C° 0.2 mm 5 mps 750 mmHg 94%
    11:00 -19°C° 0.3 mm 5 mps 750 mmHg 94%
    12:00 -18°C° 0.3 mm 5 mps 749 mmHg 94%
    13:00 -18°C° 0.3 mm 5 mps 749 mmHg 93%
    14:00 -18°C° 0.2 mm 5 mps 748 mmHg 93%
    15:00 -18°C° 0.2 mm 5 mps 748 mmHg 93%
    16:00 -18°C° 0.2 mm 5 mps 748 mmHg 93%
    17:00 -18°C° 0.2 mm 5 mps 748 mmHg 93%
    18:00 -18°C° 0.2 mm 5 mps 747 mmHg 93%
    19:00 -18°C° 0.2 mm 5 mps 747 mmHg 93%
    20:00 -19°C° 0.1 mm 5 mps 747 mmHg 93%
    21:00 -19°C° 0.1 mm 5 mps 747 mmHg 93%
    22:00 -20°C° 0.1 mm 5 mps 747 mmHg 92%
    23:00 -20°C° 0.1 mm 5 mps 747 mmHg 93%
    Show more